{"data":{"norad_id":68923,"intl_designator":"2026-098E","name":"KUIPER-00405","alt_names":[],"object_type":"PAYLOAD","status":"ACTIVE","operator":null,"country":"US","launch_date":"2026-04-30","launch_site_code":"FRGUI","launch_vehicle":null,"mission":null,"orbit_class":"UNKNOWN","rcs_meters":null,"size_class":null,"mass_kg":null,"dimensions":null,"purposes":[],"wikipedia_slug":null,"has_3d_model":false,"image_url":null,"decayed_at":null,"tle_current":{"epoch":"2026-09-19T23:54:59.613120Z","epoch_age_seconds":59028,"freshness":"FRESH","line1":"1 68923U 26098E   26262.99652330  .00000715  00000+0  12283-3 0  9999","line2":"2 68923  51.9021   1.4264 0000628 197.3635 162.7306 14.79927994 21486","mean_motion":14.79927994,"eccentricity":6.28e-5,"inclination_deg":51.9021,"raan_deg":1.4264,"arg_perigee_deg":197.3635,"mean_anomaly_deg":162.7306,"bstar":0.00012283,"rev_number":2148,"period_min":97.302031304099,"perigee_km":629.11134908753,"apogee_km":629.99151475457,"semimajor_km":7007.688431921,"source":"CELESTRAK","updated_at":"2026-09-20T09:00:24.553490Z"}}}